User: anonymous   Login
Location: Unspecified
(0.0000°N, 0.0000°E)
Time: 01:53:06
(UTC+00:00)
Language:

GGSE 3 - Orbit

View from above orbital plane
View from above orbital plane
View from above satellite
View from above satellite

Ground track
Ground track

The orbit data is extracted from the following two-line orbital elements,

1 01292U 65016C   18017.23331009  .00000024  00000-0  51959-4 0  9999
2 01292  70.0776  69.9051 0016906  57.4380 302.8359 14.00510764694706
Epoch (UTC): 17 January 2018 05:35:57
Eccentricity: 0.0016906
inclination: 70.0776°
perigee height: 880 km
apogee height: 904 km
right ascension of ascending node: 69.9051°
argument of perigee: 57.4380°
revolutions per day: 14.00510764
mean anomaly at epoch: 302.8359°
orbit number at epoch: 69470

The dashed part of the orbit path shows where the satellite is in the earth's shadow,  

DLR